Manitowoc, WI

4:59 PM CST on February 21, 2017 (GMT -0600)
Manitowoc County

Weather History for KMTW - October, 2012

Change the Weather History Date:

Friday, October 26, 2012

  Actual Average Record
Temperature  
Mean Temperature 40 °F -  
Max Temperature 46 °F 54 °F 79 °F (1963)
Min Temperature 33 °F 39 °F 23 °F (1962)
Degree Days  
Heating Degree Days 24    
Moisture  
Dew Point 27 °F    
Average Humidity 60    
Maximum Humidity 75    
Minimum Humidity 46    
Precipitation  
Precipitation 0.06 in - - ()
Sea Level Pressure  
Sea Level Pressure 30.23 in    
Wind  
Wind Speed 13 mph (WNW)    
Max Wind Speed 17 mph    
Max Gust Speed 29 mph    
Visibility 10 miles    
Events      
Averages and records for this station are not official NWS values.
T = Trace of Precipitation, MM = Missing Value Source: NWS Daily Summary

Daily Weather History Graph

Daily Weather History Graph

Search for Another Location

Airport or City:

Trip Planner

Search our weather history database for the weather conditions in past years. The results will help you decide how hot, cold, wet, or windy it might be!

Date:

Astronomy

Oct. 26, 2012 Rise Set
Actual Time 7:20 AM CDT 5:48 PM CDT
Civil Twilight 6:50 AM CDT 6:18 PM CDT
Nautical Twilight 6:16 AM CDT 6:51 PM CDT
Astronomical Twilight 5:42 AM CDT 7:25 PM CDT
Moon 4:08 PM CDT (10/26) 4:10 AM CDT (10/26)
Length of Visible Light 11h 27m
Length of Day
10h 28m
Waxing Gibbous, 91% of the Moon is Illuminated
Oct 26
Waxing Gibbous
Oct 29
Full
Nov 6
Last Quarter
Nov 13
New
Nov 20
First Quarter

Hourly Weather History & Observations

Time (CDT) Temp. Windchill Dew Point Humidity Pressure Visibility Wind Dir Wind Speed Gust Speed Precip Events Conditions
12:15 AM 39.2 °F 30.2 °F 32.0 °F 75% 30.01 in 10.0 mi WNW 17.3 mph 28.8 mph N/A   Overcast
12:35 AM 39.2 °F 30.5 °F 30.2 °F 70% 30.02 in 10.0 mi WNW 16.1 mph 24.2 mph N/A   Overcast
12:55 AM 39.2 °F 30.2 °F 30.2 °F 70% 30.03 in 10.0 mi WNW 17.3 mph 27.6 mph N/A   Overcast
1:15 AM 39.2 °F 30.5 °F 30.2 °F 70% 30.04 in 10.0 mi WNW 16.1 mph 26.5 mph N/A   Overcast
1:35 AM 39.2 °F 30.5 °F 28.4 °F 65% 30.05 in 10.0 mi WNW 16.1 mph 21.9 mph N/A   Overcast
1:55 AM 39.2 °F 30.5 °F 28.4 °F 65% 30.06 in 10.0 mi WNW 16.1 mph 20.7 mph N/A   Overcast
2:15 AM 39.2 °F 30.5 °F 28.4 °F 65% 30.08 in 10.0 mi WNW 16.1 mph 24.2 mph N/A   Overcast
2:35 AM 37.4 °F 29.3 °F 28.4 °F 70% 30.09 in 10.0 mi WNW 12.7 mph 17.3 mph N/A   Overcast
2:55 AM 37.4 °F 28.9 °F 28.4 °F 70% 30.10 in 10.0 mi WNW 13.8 mph - N/A   Overcast
3:15 AM 37.4 °F 29.3 °F 26.6 °F 65% 30.10 in 10.0 mi WNW 12.7 mph - N/A   Overcast
3:35 AM 37.4 °F 29.8 °F 26.6 °F 65% 30.11 in 10.0 mi West 11.5 mph - N/A   Overcast
3:55 AM 37.4 °F 28.9 °F 26.6 °F 65% 30.11 in 10.0 mi West 13.8 mph 20.7 mph N/A   Overcast
4:15 AM 37.4 °F 30.3 °F 26.6 °F 65% 30.12 in 10.0 mi West 10.4 mph 16.1 mph N/A   Overcast
4:35 AM 37.4 °F 30.3 °F 26.6 °F 65% 30.13 in 10.0 mi West 10.4 mph - N/A   Overcast
4:55 AM 37.4 °F 30.8 °F 26.6 °F 65% 30.14 in 10.0 mi West 9.2 mph - N/A   Overcast
5:15 AM 37.4 °F 30.3 °F 26.6 °F 65% 30.15 in 10.0 mi West 10.4 mph - N/A   Overcast
5:35 AM 35.6 °F 27.1 °F 28.4 °F 75% 30.16 in 10.0 mi West 12.7 mph - N/A   Overcast
5:55 AM 35.6 °F 28.6 °F 28.4 °F 75% 30.17 in 10.0 mi West 9.2 mph - N/A   Overcast
6:15 AM 35.6 °F 28.6 °F 26.6 °F 70% 30.18 in 10.0 mi West 9.2 mph - N/A   Overcast
6:35 AM 35.6 °F 28.6 °F 26.6 °F 70% 30.19 in 10.0 mi West 9.2 mph - N/A   Overcast
6:55 AM 35.6 °F 27.5 °F 26.6 °F 70% 30.19 in 10.0 mi West 11.5 mph - N/A   Overcast
7:15 AM 35.6 °F 28.0 °F 26.6 °F 70% 30.19 in 10.0 mi West 10.4 mph - N/A   Overcast
7:55 AM 35.6 °F 28.6 °F 26.6 °F 70% 30.22 in 10.0 mi West 9.2 mph - N/A   Overcast
8:35 AM 37.4 °F 30.3 °F 26.6 °F 65% 30.24 in 10.0 mi West 10.4 mph - N/A   Overcast
8:55 AM 37.4 °F 28.9 °F 26.6 °F 65% 30.25 in 10.0 mi West 13.8 mph 17.3 mph N/A   Overcast
9:15 AM 39.2 °F 31.6 °F 26.6 °F 61% 30.26 in 10.0 mi West 12.7 mph - N/A   Overcast
9:35 AM 39.2 °F 32.0 °F 26.6 °F 61% 30.27 in 10.0 mi WNW 11.5 mph 19.6 mph N/A   Overcast
10:15 AM 42.8 °F 36.2 °F 28.4 °F 57% 30.29 in 10.0 mi WNW 12.7 mph 17.3 mph N/A   Overcast
10:35 AM 41.0 °F 33.9 °F 26.6 °F 57% 30.29 in 10.0 mi WNW 12.7 mph 19.6 mph N/A   Overcast
10:55 AM 42.8 °F 36.6 °F 26.6 °F 53% 30.29 in 10.0 mi WNW 11.5 mph 17.3 mph N/A   Overcast
11:15 AM 42.8 °F 35.4 °F 26.6 °F 53% 30.30 in 10.0 mi West 15.0 mph - N/A   Overcast
11:35 AM 42.8 °F 35.1 °F 26.6 °F 53% 30.29 in 10.0 mi WNW 16.1 mph - N/A   Overcast
11:55 AM 44.6 °F 37.8 °F 26.6 °F 49% 30.29 in 10.0 mi WNW 15.0 mph - N/A   Overcast
12:15 PM 44.6 °F 38.8 °F 26.6 °F 49% 30.29 in 10.0 mi WNW 11.5 mph 18.4 mph N/A   Overcast
12:35 PM 44.6 °F 38.8 °F 26.6 °F 49% 30.29 in 10.0 mi West 11.5 mph 20.7 mph N/A   Scattered Clouds
12:55 PM 44.6 °F 38.8 °F 26.6 °F 49% 30.28 in 10.0 mi WNW 11.5 mph 16.1 mph N/A   Clear
1:15 PM 44.6 °F 38.8 °F 26.6 °F 49% 30.27 in 10.0 mi West 11.5 mph - N/A   Clear
1:35 PM 44.6 °F 38.4 °F 26.6 °F 49% 30.27 in 10.0 mi WNW 12.7 mph 19.6 mph N/A   Clear
1:55 PM 46.4 °F 40.4 °F 28.4 °F 50% 30.26 in 10.0 mi WNW 13.8 mph 19.6 mph N/A   Clear
2:15 PM 46.4 °F 41.1 °F 26.6 °F 46% 30.26 in 10.0 mi WNW 11.5 mph 18.4 mph N/A   Partly Cloudy
2:35 PM 46.4 °F 41.5 °F 26.6 °F 46% 30.26 in 10.0 mi NNW 10.4 mph 17.3 mph N/A   Partly Cloudy
2:55 PM 46.4 °F 41.5 °F 26.6 °F 46% 30.26 in 10.0 mi WNW 10.4 mph 16.1 mph N/A   Clear
3:15 PM 46.4 °F 40.1 °F 26.6 °F 46% 30.26 in 10.0 mi WNW 15.0 mph 19.6 mph N/A   Clear
3:35 PM 46.4 °F 41.1 °F 26.6 °F 46% 30.26 in 10.0 mi WNW 11.5 mph - N/A   Clear
3:55 PM 46.4 °F 41.5 °F 26.6 °F 46% 30.26 in 10.0 mi West 10.4 mph - N/A   Clear
4:15 PM 44.6 °F 39.2 °F 24.8 °F 46% 30.27 in 10.0 mi WNW 10.4 mph - N/A   Clear
4:35 PM 44.6 °F 40.2 °F 26.6 °F 49% 30.27 in 10.0 mi WNW 8.1 mph - N/A   Clear
4:55 PM 44.6 °F 40.7 °F 26.6 °F 49% 30.28 in 10.0 mi West 6.9 mph - N/A   Clear
5:15 PM 44.6 °F 40.7 °F 26.6 °F 49% 30.28 in 10.0 mi West 6.9 mph - N/A   Partly Cloudy
5:35 PM 44.6 °F 40.7 °F 26.6 °F 49% 30.28 in 10.0 mi West 6.9 mph - N/A   Scattered Clouds
5:55 PM 42.8 °F 38.6 °F 26.6 °F 53% 30.29 in 10.0 mi West 6.9 mph - N/A   Clear
6:15 PM 42.8 °F 39.3 °F 26.6 °F 53% 30.30 in 10.0 mi WNW 5.8 mph - N/A   Clear
6:35 PM 41.0 °F 36.4 °F 26.6 °F 57% 30.30 in 10.0 mi WNW 6.9 mph - N/A   Clear
6:55 PM 41.0 °F 36.4 °F 26.6 °F 57% 30.30 in 10.0 mi WNW 6.9 mph - N/A   Clear
7:15 PM 39.2 °F 33.6 °F 26.6 °F 61% 30.31 in 10.0 mi WNW 8.1 mph - N/A   Clear
7:35 PM 39.2 °F 32.5 °F 26.6 °F 61% 30.31 in 10.0 mi WNW 10.4 mph - N/A   Clear
7:55 PM 39.2 °F 32.5 °F 26.6 °F 61% 30.31 in 10.0 mi WNW 10.4 mph - N/A   Clear
8:15 PM 39.2 °F 33.6 °F 26.6 °F 61% 30.32 in 10.0 mi WNW 8.1 mph - N/A   Clear
8:35 PM 37.4 °F 30.3 °F 26.6 °F 65% 30.31 in 10.0 mi WNW 10.4 mph - N/A   Clear
8:55 PM 37.4 °F 29.8 °F 26.6 °F 65% 30.32 in 10.0 mi WNW 11.5 mph - N/A   Clear
9:15 PM 37.4 °F 30.8 °F 26.6 °F 65% 30.31 in 10.0 mi NW 9.2 mph - N/A   Clear
9:35 PM 37.4 °F 30.3 °F 24.8 °F 60% 30.32 in 10.0 mi NW 10.4 mph - N/A   Clear
9:55 PM 35.6 °F 29.2 °F 24.8 °F 65% 30.33 in 10.0 mi NW 8.1 mph - N/A   Clear
10:15 PM 35.6 °F 29.2 °F 24.8 °F 65% 30.33 in 10.0 mi WNW 8.1 mph - N/A   Clear
10:35 PM 35.6 °F 30.7 °F 24.8 °F 65% 30.33 in 10.0 mi WNW 5.8 mph - N/A   Clear
10:55 PM 35.6 °F 29.9 °F 24.8 °F 65% 30.32 in 10.0 mi WNW 6.9 mph - N/A   Clear
11:15 PM 35.6 °F 28.6 °F 24.8 °F 65% 30.32 in 10.0 mi WNW 9.2 mph - N/A   Clear
11:35 PM 35.6 °F 29.9 °F 24.8 °F 65% 30.32 in 10.0 mi WNW 6.9 mph - N/A   Clear
11:55 PM 33.8 °F 29.6 °F 24.8 °F 70% 30.32 in 10.0 mi WNW 4.6 mph - N/A   Clear